Dothan, AL

5:44 PM CDT on September 19, 2017 (GMT -0500)
Dothan Regional

Weather History for KDHN - March, 2013

Change the Weather History Date:

Thursday, March 21, 2013

  Actual Average Record
Temperature  
Mean Temperature 52 °F 60 °F  
Max Temperature 63 °F 72 °F 87 °F (1948)
Min Temperature 40 °F 48 °F 31 °F (1956)
Degree Days  
Heating Degree Days 13 6  
Month to date heating degree days 234 160  
Since 1 July heating degree days 1441 1719  
Cooling Degree Days 0 1  
Month to date cooling degree days 4 20  
Year to date cooling degree days 42 30  
Growing Degree Days 2 (Base 50)    
Moisture  
Dew Point 26 °F    
Average Humidity 42    
Maximum Humidity 67    
Minimum Humidity 17    
Precipitation  
Precipitation 0.00 in 0.20 in 1.92 in (1937)
Month to date precipitation 0.62 3.57  
Year to date precipitation 7.95 12.97  
Sea Level Pressure  
Sea Level Pressure 30.00 in    
Wind  
Wind Speed 8 mph (NW)    
Max Wind Speed 14 mph    
Max Gust Speed 18 mph    
Visibility 10 miles    
Events      
T = Trace of Precipitation, MM = Missing Value Source: NWS Daily Summary

Daily Weather History Graph

Daily Weather History Graph

Search for Another Location

Airport or City:

Trip Planner

Search our weather history database for the weather conditions in past years. The results will help you decide how hot, cold, wet, or windy it might be!

Date:

Astronomy

Mar. 21, 2013 Rise Set
Actual Time 6:44 AM CDT 6:54 PM CDT
Civil Twilight 6:19 AM CDT 7:18 PM CDT
Nautical Twilight 5:51 AM CDT 7:46 PM CDT
Astronomical Twilight 5:23 AM CDT 8:15 PM CDT
Moon 1:41 PM CDT (3/21) 2:46 AM CDT (3/21)
Length of Visible Light 12h 58m
Length of Day
12h 10m
Waxing Gibbous, 69% of the Moon is Illuminated
Mar 21
Waxing Gibbous
Mar 27
Full
Apr 2
Last Quarter
Apr 10
New
Apr 18
First Quarter

Hourly Weather History & Observations

Time (CDT) Temp. Windchill Dew Point Humidity Pressure Visibility Wind Dir Wind Speed Gust Speed Precip Events Conditions
12:53 AM 46.9 °F - 30.0 °F 52% 30.01 in 10.0 mi NW 12.7 mph - N/A   Clear
1:53 AM 45.0 °F 41.2 °F 32.0 °F 60% 30.01 in 10.0 mi NNW 6.9 mph - N/A   Clear
2:53 AM 43.0 °F 39.5 °F 30.0 °F 60% 30.03 in 10.0 mi WNW 5.8 mph - N/A   Clear
3:53 AM 43.0 °F 38.8 °F 30.9 °F 62% 30.01 in 10.0 mi NNW 6.9 mph - N/A   Clear
4:53 AM 41.0 °F 37.1 °F 30.9 °F 67% 30.01 in 10.0 mi NW 5.8 mph - N/A   Clear
5:53 AM 41.0 °F 38.0 °F 30.0 °F 65% 30.01 in 10.0 mi WNW 4.6 mph - N/A   Clear
6:53 AM 41.0 °F 37.1 °F 30.0 °F 65% 30.02 in 10.0 mi WNW 5.8 mph - N/A   Clear
7:53 AM 42.1 °F 39.2 °F 30.9 °F 65% 30.04 in 10.0 mi NW 4.6 mph - N/A   Clear
8:53 AM 45.0 °F 39.7 °F 30.0 °F 56% 30.05 in 10.0 mi NW 10.4 mph - N/A   Clear
9:53 AM 50.0 °F - 23.0 °F 35% 30.06 in 10.0 mi NNW 13.8 mph - N/A   Clear
10:53 AM 54.0 °F - 21.0 °F 28% 30.05 in 10.0 mi NW 11.5 mph - N/A   Clear
11:53 AM 55.0 °F - 18.0 °F 23% 30.05 in 10.0 mi NW 10.4 mph 18.4 mph N/A   Clear
12:53 PM 57.9 °F - 18.0 °F 21% 30.02 in 10.0 mi WNW 12.7 mph 18.4 mph N/A   Clear
1:53 PM 60.1 °F - 17.1 °F 19% 30.00 in 10.0 mi NNW 10.4 mph 18.4 mph N/A   Clear
2:53 PM 61.0 °F - 17.1 °F 18% 29.97 in 10.0 mi WNW 10.4 mph 18.4 mph N/A   Clear
3:53 PM 62.1 °F - 18.0 °F 18% 29.96 in 10.0 mi West 5.8 mph - N/A   Clear
4:53 PM 62.1 °F - 16.0 °F 17% 29.94 in 10.0 mi WNW 6.9 mph - N/A   Clear
5:53 PM 61.0 °F - 19.9 °F 21% 29.94 in 10.0 mi NNW 5.8 mph - N/A   Clear
6:53 PM 57.0 °F - 24.1 °F 28% 29.96 in 10.0 mi WNW 5.8 mph - N/A   Clear
7:53 PM 55.0 °F - 30.0 °F 38% 29.97 in 10.0 mi NNW 4.6 mph - N/A   Clear
8:53 PM 53.1 °F - 33.1 °F 47% 29.98 in 10.0 mi NNW 4.6 mph - N/A   Clear
9:53 PM 52.0 °F - 30.0 °F 43% 29.98 in 10.0 mi NNE 5.8 mph - N/A   Clear
10:53 PM 51.1 °F - 32.0 °F 48% 29.99 in 10.0 mi North 3.5 mph - N/A   Partly Cloudy
11:53 PM 51.1 °F - 28.0 °F 41% 29.96 in 10.0 mi NE 6.9 mph - N/A   Partly Cloudy